Miscellaneous Local Product
Issued by NWS Hastings, NE

Home | Current Version | Previous Version | Graphics & Text | Print | Product List | Glossary On
Versions: 1 2 3 4 5 6 7 8 9 10 11 12 13 14 15 16 17 18 19 20 21 22 23 24 25 26 27 28 29 30 31 32 33 34 35 36 37 38 39 40 41 42 43 44 45 46 47 48 49 50
000
AXUS43 KGID 231402
MISGRI

GID CWA HOURLY WEATHER ROUNDUP
NATIONAL WEATHER SERVICE HASTINGS NE
800 AM CST MON JAN 23 2017

NOTE: "FAIR" INDICATES FEW OR NO CLOUDS BELOW 12,000 FEET WITH NO
SIGNIFICANT WEATHER AND/OR OBSTRUCTIONS TO VISIBILITY.

...SOUTH CENTRAL NEBRASKA...

CITY           SKY/WX    TMP DP  RH WIND       PRES   REMARKS
GRAND ISLAND   FOG       26  26 100 E6        29.86F VSB 1/2 WCI  19
HASTINGS       CLOUDY    29  26  89 SE7       29.86F WCI  22
KEARNEY        CLOUDY    30  27  86 CALM      29.83S
ORD            PTCLDY    25  22  88 SE3       29.83S
YORK           FOG       27  27 100 CALM      29.87F VSB<1/4
AURORA         FOG       26  26 100 E5        29.86F VSB<1/4 WCI  21
LEXINGTON      PTCLDY    30  27  86 SE7       29.79F WCI  23
HOLDREGE       PTCLDY    28  26  91 SE7       29.81F WCI  21
HEBRON         CLOUDY    25  25 100 CALM      29.88F

...NEBRASKA PANHANDLE...

CITY           SKY/WX    TMP DP  RH WIND       PRES   REMARKS
CHADRON        CLOUDY    32  23  69 S8        29.66S WCI  25
ALLIANCE       CLOUDY    27  25  92 SE5       29.64F WCI  22
SCOTTSBLUFF    CLOUDY    26  21  81 E6        29.64F WCI  19
SIDNEY         CLOUDY    28  22  78 S6        29.65F WCI  22

...WESTERN AND NORTH CENTRAL NEBRASKA...

CITY           SKY/WX    TMP DP  RH WIND       PRES   REMARKS
VALENTINE      CLOUDY    20  17  88 NE5       29.76S WCI  13
AINSWORTH      CLOUDY    24  23  98 E6        29.77S WCI  16
ONEILL         FOG       27  26  99 SE5       29.84F VSB 1/2 WCI  21
BROKEN BOW     CLOUDY    30  26  85 E5        29.78F WCI  25
IMPERIAL       MOCLDY    28  23  81 SE9       29.70F WCI  19
NORTH PLATTE   CLOUDY    29  25  85 E8        29.75F WCI  21
MCCOOK         CLEAR     23  22  96 E6        29.77F WCI  16

...EASTERN NEBRASKA...

CITY           SKY/WX    TMP DP  RH WIND       PRES   REMARKS
NORFOLK        CLOUDY    28  24  85 CALM      29.87F
SO SIOUX CITY  CLOUDY    33  28  81 W8        29.89R WCI  26
TEKAMAH        CLOUDY    32  27  81 NW5       29.90R WCI  27
COLUMBUS       CLOUDY    30  25  80 CALM      29.88F
ALBION         CLOUDY    27  24  90 SE3       29.86S FOG
OMAHA EPPLEY   CLOUDY    32  26  78 NW8       29.90R WCI  25
OFFUTT AFB     CLOUDY    31  31  99 NW6       29.90R WCI  26
MILLARD        CLOUDY    34  29  83 CALM      29.90R
LINCOLN        CLOUDY    30  27  88 NE5       29.90F WCI  25
NEBRASKA CITY  CLOUDY    31  28  90 N5        29.89S WCI  26
BEATRICE       FOG       28  28 100 N5        29.89S VSB 3/4 WCI  23
FALLS CITY     CLOUDY    30  28  92 NW6       29.90S WCI  24

...NORTHERN KANSAS...

CITY           SKY/WX    TMP DP  RH WIND       PRES   REMARKS
GOODLAND       CLEAR     26  23  88 S9        29.72F WCI  17
HILL CITY      CLEAR     22  21  96 CALM      29.82S
NORTON         SUNNY     23  19  86 CALM      29.78F
PHILLIPSBURG   CLEAR     27  27 100 NE5       29.83F WCI  21
SMITH CENTER   CLEAR     23  21  93 SE5       29.85F WCI  17
RUSSELL        PTCLDY    28  25  88 NW3       29.83R
CONCORDIA      CLEAR     23  23 100 CALM      29.86S
SALINA         PTCLDY    28  25  88 S5        29.88F WCI  23
TOPEKA         FOG       26  22  84 CALM      29.90F VSB 1/2



USA.gov is the U.S. government's official web portal to all federal, state and local government web resources and services.